Klawock, AK

3:30 PM AKST on December 16, 2017 (GMT -0900)
Klawock

Weather History for PAKW - September, 2012

Change the Weather History Date:

Tuesday, September 4, 2012

  Actual Average Record
Temperature  
Mean Temperature 54 °F -  
Max Temperature 62 °F 58 °F 73 °F (2017)
Min Temperature 48 °F 46 °F 39 °F (2015)
Degree Days  
Heating Degree Days 11    
Growing Degree Days 4 (Base 50)    
Moisture  
Dew Point 53 °F    
Average Humidity 92    
Maximum Humidity 100    
Minimum Humidity 78    
Precipitation  
Precipitation 0.35 in - - ()
Sea Level Pressure  
Sea Level Pressure 30.23 in    
Wind  
Wind Speed 5 mph (SSW)    
Max Wind Speed 8 mph    
Max Gust Speed -    
Visibility 8 miles    
Events Rain    
Averages and records for this station are not official NWS values.
T = Trace of Precipitation, MM = Missing Value Source: NWS Daily Summary

Daily Weather History Graph

Daily Weather History Graph

Search for Another Location

Airport or City:

Trip Planner

Search our weather history database for the weather conditions in past years. The results will help you decide how hot, cold, wet, or windy it might be!

Date:

Astronomy

Sep. 04, 2012 Rise Set
Actual Time 6:04 AM AKDT 7:36 PM AKDT
Civil Twilight 5:26 AM AKDT 8:14 PM AKDT
Nautical Twilight 4:38 AM AKDT 9:01 PM AKDT
Astronomical Twilight 3:44 AM AKDT 9:55 PM AKDT
Moon 8:33 PM AKDT (9/4) 11:16 AM AKDT (9/4)
Length of Visible Light 14h 48m
Length of Day
13h 31m
Waning Gibbous, 82% of the Moon is Illuminated
Sep 4
Waning Gibbous
Sep 8
Last Quarter
Sep 15
New
Sep 22
First Quarter
Sep 29
Full

Hourly Weather History & Observations

Time (AKDT) Temp. Dew Point Humidity Pressure Visibility Wind Dir Wind Speed Gust Speed Precip Events Conditions
12:53 AM 57.0 °F 54.0 °F 89% 30.17 in 10.0 mi South 8.1 mph - 0.01 in Rain Light Rain
1:53 AM 57.0 °F 54.0 °F 89% 30.17 in 10.0 mi Variable 4.6 mph - 0.00 in Rain Light Rain
2:53 AM 57.0 °F 55.0 °F 93% 30.16 in 10.0 mi Variable 5.8 mph - 0.01 in Rain Light Rain
3:53 AM 55.9 °F 55.0 °F 97% 30.17 in 4.0 mi SSW 5.8 mph - 0.08 in Rain Rain
3:56 AM 55.4 °F 55.4 °F 100% 30.17 in 3.0 mi SSW 4.6 mph - 0.01 in Rain Rain
4:14 AM 55.4 °F 55.4 °F 100% 30.17 in 5.0 mi SW 4.6 mph - 0.06 in Rain Light Rain
4:30 AM 55.4 °F 55.4 °F 100% 30.18 in 2.5 mi Variable 4.6 mph - 0.10 in Rain Rain
4:44 AM 55.4 °F 55.4 °F 100% 30.17 in 2.5 mi SSW 4.6 mph - 0.14 in Rain Rain
4:53 AM 55.9 °F 55.0 °F 97% 30.17 in 2.5 mi SSW 5.8 mph - 0.16 in Rain Rain
4:56 AM 55.4 °F 55.4 °F 100% 30.17 in 3.0 mi SW 6.9 mph - 0.00 in Rain Rain
5:24 AM 55.4 °F 55.4 °F 100% 30.18 in 3.0 mi SW 8.1 mph - 0.03 in Rain Light Rain
5:30 AM 55.4 °F 55.4 °F 100% 30.18 in 2.5 mi SW 5.8 mph - 0.03 in Rain Light Rain
5:53 AM 55.9 °F 55.0 °F 97% 30.19 in 2.5 mi WSW 5.8 mph - 0.07 in Rain Light Rain
6:00 AM 55.4 °F 55.4 °F 100% 30.19 in 3.0 mi WSW 5.8 mph - 0.00 in Rain Light Rain
6:12 AM 55.4 °F 55.4 °F 100% 30.19 in 6.0 mi WSW 5.8 mph - 0.01 in Rain Light Rain
6:36 AM 55.4 °F 53.6 °F 94% 30.20 in 10.0 mi Calm Calm - 0.01 in   Overcast
6:53 AM 55.0 °F 54.0 °F 96% 30.20 in 10.0 mi SSE 3.5 mph - 0.01 in   Overcast
7:18 AM 55.4 °F 53.6 °F 94% 30.20 in 10.0 mi South 3.5 mph - N/A   Overcast
7:53 AM 55.0 °F 54.0 °F 96% 30.20 in 10.0 mi South 3.5 mph - 0.00 in   Overcast
8:22 AM 55.4 °F 53.6 °F 94% 30.21 in 4.0 mi Calm Calm - 0.00 in Rain Light Rain
8:29 AM 55.4 °F 53.6 °F 94% 30.21 in 6.0 mi South 3.5 mph - 0.01 in Rain Light Rain
8:39 AM 55.4 °F 53.6 °F 94% 30.21 in 4.0 mi Calm Calm - 0.01 in Rain Light Rain
8:48 AM 55.4 °F 53.6 °F 94% 30.21 in 2.5 mi West 6.9 mph - 0.01 in Rain Light Rain
8:53 AM 55.0 °F 54.0 °F 96% 30.21 in 5.0 mi SW 4.6 mph - 0.01 in Rain Light Rain
9:00 AM 55.4 °F 53.6 °F 94% 30.21 in 9.0 mi SW 4.6 mph - N/A   Overcast
9:36 AM 55.4 °F 53.6 °F 94% 30.22 in 10.0 mi South 4.6 mph - N/A   Overcast
9:53 AM 55.0 °F 53.1 °F 93% 30.23 in 10.0 mi South 3.5 mph - N/A   Overcast
10:07 AM 55.4 °F 53.6 °F 94% 30.23 in 10.0 mi South 4.6 mph - N/A   Overcast
10:53 AM 57.0 °F 54.0 °F 89% 30.24 in 10.0 mi South 5.8 mph - N/A   Overcast
11:53 AM 57.9 °F 55.0 °F 90% 30.26 in 10.0 mi SSW 4.6 mph - N/A   Overcast
12:01 PM 57.2 °F 51.8 °F 82% 30.26 in 10.0 mi South 4.6 mph - N/A   Overcast
12:15 PM 57.2 °F 53.6 °F 88% 30.26 in 10.0 mi Variable 3.5 mph - N/A   Overcast
12:53 PM 57.9 °F 54.0 °F 87% 30.26 in 10.0 mi SW 6.9 mph - N/A   Overcast
1:53 PM 57.9 °F 53.1 °F 84% 30.27 in 10.0 mi Variable 3.5 mph - N/A   Overcast
2:53 PM 59.0 °F 52.0 °F 78% 30.28 in 10.0 mi WSW 5.8 mph - N/A   Overcast
3:53 PM 60.1 °F 53.1 °F 78% 30.28 in 10.0 mi Variable 5.8 mph - N/A   Overcast
4:53 PM 59.0 °F 52.0 °F 78% 30.28 in 10.0 mi Variable 6.9 mph - N/A   Partly Cloudy
5:53 PM 57.0 °F 51.1 °F 81% 30.28 in 10.0 mi SW 5.8 mph - N/A   Clear
6:53 PM 55.0 °F 50.0 °F 83% 30.28 in 10.0 mi SSW 3.5 mph - N/A   Clear
7:53 PM 53.1 °F 50.0 °F 89% 30.29 in 10.0 mi South 3.5 mph - N/A   Partly Cloudy
8:53 PM 51.1 °F 48.9 °F 92% 30.29 in 10.0 mi Calm Calm - N/A   Partly Cloudy
9:53 PM 48.9 °F 46.9 °F 93% 30.30 in 10.0 mi Calm Calm - N/A   Clear
10:53 PM 50.0 °F 48.0 °F 93% 30.30 in 10.0 mi Calm Calm - N/A   Partly Cloudy
11:09 PM 48.2 °F 46.4 °F 93% 30.30 in 10.0 mi Calm Calm - N/A   Mostly Cloudy
11:27 PM 50.0 °F 46.4 °F 87% 30.30 in 10.0 mi WSW 3.5 mph - N/A   Mostly Cloudy
11:53 PM 48.9 °F 46.9 °F 93% 30.30 in 10.0 mi Calm Calm - N/A   Overcast